| time (UTC) | temp C | wind direction | speed KPH | gust KPH | rain 1hr cm | rain 24hr cm | rain mn cm | humidity % | barometer mb |
| 20260507044550 | 5 | 0 | 0.0 | 0.0 | 0.00 | 1.09 | 0.00 | 88 | 1015.7 |
| 20260507044040 | 5 | 0 | 0.0 | 0.0 | 0.00 | 1.09 | 0.00 | 88 | 1015.7 |
| 20260507043537 | 5 | 0 | 0.0 | 0.0 | 0.00 | 1.09 | 0.00 | 87 | 1015.6 |
| 20260507043047 | 5 | 0 | 0.0 | 0.0 | 0.00 | 1.09 | 0.00 | 87 | 1015.6 |
| 20260507042538 | 5 | 0 | 0.0 | 0.0 | 0.00 | 1.09 | 0.00 | 88 | 1015.6 |
| 20260507042037 | 5 | 0 | 0.0 | 0.0 | 0.00 | 1.09 | 0.00 | 87 | 1015.6 |
| 20260507041547 | 5 | 0 | 0.0 | 0.0 | 0.00 | 1.09 | 0.00 | 87 | 1015.5 |
| 20260507041038 | 5 | 0 | 0.0 | 0.0 | 0.00 | 1.09 | 0.00 | 87 | 1015.7 |
| 20260507040538 | 5 | 0 | 0.0 | 0.0 | 0.00 | 1.09 | 0.00 | 88 | 1015.6 |
| 20260507040049 | 5 | 0 | 0.0 | 0.0 | 0.00 | 1.09 | 0.00 | 87 | 1015.6 |
| 20260507035537 | 5 | 0 | 0.0 | 0.0 | 0.00 | 1.12 | 1.09 | 87 | 1015.5 |
| 20260507035036 | 5 | 0 | 0.0 | 0.0 | 0.00 | 1.12 | 1.09 | 87 | 1015.6 |
| 20260507034548 | 5 | 0 | 0.0 | 0.0 | 0.00 | 1.12 | 1.09 | 87 | 1015.5 |
| 20260507034036 | 5 | 0 | 0.0 | 0.0 | 0.00 | 1.12 | 1.09 | 87 | 1015.5 |
| 20260507033537 | 5 | 0 | 0.0 | 0.0 | 0.00 | 1.12 | 1.09 | 87 | 1015.5 |
| 20260507033050 | 5 | 0 | 0.0 | 0.0 | 0.00 | 1.12 | 1.09 | 87 | 1015.6 |
| 20260507032537 | 6 | 0 | 0.0 | 0.0 | 0.00 | 1.12 | 1.09 | 87 | 1015.7 |
| 20260507032037 | 6 | 0 | 0.0 | 0.0 | 0.00 | 1.12 | 1.09 | 86 | 1015.7 |
| 20260507031548 | 6 | 0 | 0.0 | 0.0 | 0.00 | 1.12 | 1.09 | 86 | 1015.7 |
| 20260507031036 | 6 | 0 | 0.0 | 0.0 | 0.00 | 1.12 | 1.09 | 86 | 1015.7 |
| 20260507030535 | 6 | 0 | 0.0 | 0.0 | 0.00 | 1.12 | 1.09 | 86 | 1015.7 |
| 20260507030049 | 6 | 0 | 0.0 | 0.0 | 0.00 | 1.12 | 1.09 | 86 | 1015.8 |
| 20260507025537 | 6 | 0 | 0.0 | 0.0 | 0.00 | 1.32 | 1.09 | 86 | 1015.8 |
| 20260507025039 | 6 | 0 | 0.0 | 0.0 | 0.00 | 1.32 | 1.09 | 84 | 1015.9 |
| 20260507024548 | 6 | 0 | 0.0 | 0.0 | 0.00 | 1.32 | 1.09 | 83 | 1016.0 |
| 20260507024037 | 6 | 0 | 0.0 | 0.0 | 0.00 | 1.32 | 1.09 | 82 | 1016.0 |
| 20260507023533 | 7 | 0 | 0.0 | 0.0 | 0.00 | 1.32 | 1.09 | 82 | 1016.0 |
| 20260507023045 | 7 | 0 | 0.0 | 0.0 | 0.00 | 1.32 | 1.09 | 81 | 1015.9 |
| 20260507022536 | 7 | 0 | 0.0 | 0.0 | 0.00 | 1.32 | 1.09 | 81 | 1016.0 |
| 20260507022037 | 7 | 0 | 0.0 | 0.0 | 0.00 | 1.32 | 1.09 | 80 | 1015.8 |
| 20260507021546 | 7 | 0 | 0.0 | 0.0 | 0.00 | 1.32 | 1.09 | 80 | 1015.8 |
| 20260507021036 | 7 | 0 | 0.0 | 0.0 | 0.00 | 1.32 | 1.09 | 80 | 1015.8 |
| 20260507020549 | 7 | 0 | 0.0 | 0.0 | 0.00 | 1.32 | 1.09 | 79 | 1015.6 |
| 20260507015540 | 8 | 0 | 0.0 | 0.0 | 0.00 | 1.78 | 1.09 | 78 | 1015.5 |
| 20260507015037 | 8 | 0 | 0.0 | 0.0 | 0.00 | 1.78 | 1.09 | 77 | 1015.4 |
| 20260507014556 | 8 | 0 | 0.0 | 0.0 | 0.00 | 1.78 | 1.09 | 77 | 1015.4 |
| 20260507014037 | 8 | 0 | 0.0 | 0.0 | 0.00 | 1.78 | 1.09 | 76 | 1015.5 |
| 20260507013536 | 8 | 0 | 0.0 | 0.0 | 0.00 | 1.78 | 1.09 | 75 | 1015.5 |
| 20260507013047 | 9 | 0 | 0.0 | 0.0 | 0.00 | 1.78 | 1.09 | 74 | 1015.4 |
| 20260507012537 | 9 | 0 | 0.0 | 0.0 | 0.00 | 1.78 | 1.09 | 74 | 1015.3 |
| 20260507012034 | 9 | 0 | 0.0 | 0.0 | 0.00 | 1.78 | 1.09 | 74 | 1015.3 |
| 20260507011547 | 10 | 0 | 0.0 | 0.0 | 0.00 | 1.78 | 1.09 | 75 | 1015.3 |
| 20260507011034 | 10 | 0 | 0.0 | 0.0 | 0.00 | 1.78 | 1.09 | 75 | 1015.4 |
| 20260507010536 | 10 | 0 | 0.0 | 0.0 | 0.00 | 1.78 | 1.09 | 74 | 1015.4 |
| 20260507010059 | 10 | 0 | 0.0 | 0.0 | 0.00 | 1.78 | 1.09 | 72 | 1015.3 |
| 20260507005536 | 10 | 0 | 0.0 | 0.0 | 0.00 | 2.03 | 1.09 | 72 | 1015.3 |
| 20260507005037 | 10 | 0 | 0.0 | 0.0 | 0.00 | 2.03 | 1.09 | 71 | 1015.2 |
| 20260507004551 | 10 | 0 | 0.0 | 0.0 | 0.00 | 2.03 | 1.09 | 71 | 1015.2 |
| 20260507004035 | 10 | 0 | 0.0 | 0.0 | 0.00 | 2.03 | 1.09 | 70 | 1014.9 |
| 20260507003535 | 10 | 0 | 0.0 | 0.0 | 0.00 | 2.03 | 1.09 | 67 | 1014.9 |
| 20260507003048 | 11 | 0 | 0.0 | 0.0 | 0.00 | 2.03 | 1.09 | 66 | 1014.8 |
| 20260507002537 | 11 | 0 | 0.0 | 0.0 | 0.00 | 2.03 | 1.09 | 67 | 1014.9 |
| 20260507002035 | 11 | 0 | 0.0 | 0.0 | 0.00 | 2.03 | 1.09 | 66 | 1014.6 |
| 20260507001555 | 11 | 0 | 0.0 | 1.6 | 0.00 | 2.03 | 1.09 | 65 | 1014.7 |
| 20260507001034 | 11 | 0 | 0.0 | 1.6 | 0.00 | 2.03 | 1.09 | 64 | 1014.6 |
| 20260507000535 | 11 | 0 | 0.0 | 1.6 | 0.00 | 2.03 | 1.09 | 64 | 1014.5 |
| 20260507000048 | 11 | 0 | 0.0 | 1.6 | 0.00 | 2.03 | 1.09 | 64 | 1014.5 |
| 20260506235534 | 11 | 0 | 0.0 | 1.6 | 0.00 | 2.18 | 1.09 | 65 | 1014.7 |
| 20260506235034 | 11 | 238 | 0.0 | 1.6 | 0.00 | 2.18 | 1.09 | 63 | 1014.5 |
| 20260506234547 | 12 | 0 | 0.0 | 1.6 | 0.00 | 2.18 | 1.09 | 64 | 1014.5 |
| 20260506234036 | 12 | 211 | 0.0 | 3.2 | 0.00 | 2.18 | 1.09 | 62 | 1014.4 |
| 20260506233537 | 12 | 0 | 0.0 | 3.2 | 0.00 | 2.18 | 1.09 | 61 | 1014.3 |
| 20260506233046 | 12 | 266 | 0.0 | 3.2 | 0.00 | 2.18 | 1.09 | 61 | 1014.5 |
| 20260506232533 | 12 | 0 | 0.0 | 4.8 | 0.00 | 2.18 | 1.09 | 60 | 1014.5 |
| 20260506232036 | 12 | 32 | 0.0 | 4.8 | 0.00 | 2.18 | 1.09 | 59 | 1014.5 |
| 20260506231603 | 12 | 256 | 0.0 | 4.8 | 0.00 | 2.18 | 1.09 | 59 | 1014.5 |
| 20260506231036 | 12 | 265 | 1.6 | 4.8 | 0.00 | 2.18 | 1.09 | 59 | 1014.5 |
| 20260506230536 | 12 | 0 | 0.0 | 6.4 | 0.00 | 2.18 | 1.09 | 60 | 1014.5 |
| 20260506230109 | 12 | 262 | 0.0 | 6.4 | 0.00 | 2.18 | 1.09 | 61 | 1014.5 |
| 20260506225535 | 12 | 242 | 0.0 | 6.4 | 0.00 | 2.46 | 1.09 | 60 | 1014.7 |
| 20260506225035 | 12 | 252 | 1.6 | 4.8 | 0.00 | 2.46 | 1.09 | 59 | 1014.7 |
| 20260506224546 | 12 | 339 | 0.0 | 4.8 | 0.00 | 2.46 | 1.09 | 59 | 1015.0 |
| 20260506224034 | 12 | 271 | 0.0 | 4.8 | 0.00 | 2.46 | 1.09 | 60 | 1014.9 |
| 20260506223536 | 12 | 273 | 0.0 | 3.2 | 0.00 | 2.46 | 1.09 | 61 | 1014.8 |
| 20260506223051 | 12 | 0 | 0.0 | 3.2 | 0.00 | 2.46 | 1.09 | 60 | 1014.8 |
| 20260506222534 | 12 | 0 | 0.0 | 1.6 | 0.00 | 2.46 | 1.09 | 58 | 1014.8 |
| 20260506222038 | 12 | 0 | 0.0 | 6.4 | 0.00 | 2.46 | 1.09 | 59 | 1015.0 |
| 20260506221607 | 12 | 284 | 0.0 | 6.4 | 0.00 | 2.46 | 1.09 | 58 | 1015.1 |
| 20260506221038 | 12 | 268 | 0.0 | 4.8 | 0.00 | 2.46 | 1.09 | 59 | 1014.9 |
| 20260506220536 | 12 | 264 | 0.0 | 4.8 | 0.00 | 2.46 | 1.09 | 58 | 1014.9 |
| 20260506215533 | 12 | 0 | 0.0 | 6.4 | 0.00 | 2.49 | 1.09 | 59 | 1015.1 |
| 20260506215033 | 12 | 0 | 0.0 | 6.4 | 0.00 | 2.49 | 1.09 | 58 | 1015.0 |
| 20260506214548 | 12 | 265 | 1.6 | 6.4 | 0.00 | 2.49 | 1.09 | 57 | 1014.7 |
| 20260506214032 | 12 | 260 | 1.6 | 4.8 | 0.00 | 2.49 | 1.09 | 56 | 1014.6 |
| 20260506213540 | 12 | 275 | 1.6 | 8.0 | 0.00 | 2.49 | 1.09 | 58 | 1014.5 |
| 20260506213103 | 12 | 269 | 1.6 | 8.0 | 0.00 | 2.49 | 1.09 | 57 | 1014.6 |
| 20260506212537 | 12 | 255 | 0.0 | 6.4 | 0.00 | 2.49 | 1.09 | 56 | 1014.4 |
| 20260506212037 | 12 | 250 | 3.2 | 6.4 | 0.00 | 2.49 | 1.09 | 57 | 1014.3 |
| 20260506211547 | 12 | 269 | 0.0 | 6.4 | 0.00 | 2.49 | 1.09 | 60 | 1014.5 |
| 20260506211037 | 12 | 263 | 1.6 | 6.4 | 0.00 | 2.49 | 1.09 | 58 | 1014.3 |
| 20260506210537 | 12 | 234 | 0.0 | 4.8 | 0.00 | 2.49 | 1.09 | 60 | 1014.3 |
| 20260506210055 | 12 | 263 | 0.0 | 6.4 | 0.00 | 2.49 | 1.09 | 59 | 1014.2 |
| 20260506205533 | 12 | 267 | 0.0 | 6.4 | 0.00 | 3.10 | 1.09 | 60 | 1014.2 |
| 20260506205036 | 12 | 260 | 1.6 | 6.4 | 0.00 | 3.10 | 1.09 | 59 | 1014.2 |
| 20260506204548 | 12 | 279 | 1.6 | 6.4 | 0.00 | 3.10 | 1.09 | 60 | 1014.3 |
| 20260506204037 | 12 | 271 | 1.6 | 11.3 | 0.00 | 3.10 | 1.09 | 59 | 1014.4 |
| 20260506203540 | 12 | 271 | 1.6 | 11.3 | 0.00 | 3.10 | 1.09 | 59 | 1014.4 |
| 20260506203044 | 13 | 264 | 1.6 | 8.0 | 0.00 | 3.10 | 1.09 | 58 | 1014.3 |
| 20260506202536 | 13 | 258 | 1.6 | 8.0 | 0.00 | 3.10 | 1.09 | 58 | 1014.3 |
| 20260506202037 | 13 | 271 | 0.0 | 6.4 | 0.00 | 3.10 | 1.09 | 61 | 1014.3 |
| 20260506201552 | 13 | 280 | 0.0 | 4.8 | 0.00 | 3.10 | 1.09 | 60 | 1014.2 |
| 20260506201035 | 13 | 261 | 1.6 | 4.8 | 0.00 | 3.10 | 1.09 | 59 | 1014.3 |
| 20260506200537 | 13 | 269 | 1.6 | 6.4 | 0.00 | 3.10 | 1.09 | 57 | 1014.3 |
| 20260506200054 | 13 | 0 | 0.0 | 6.4 | 0.00 | 3.10 | 1.09 | 60 | 1014.2 |
| 20260506195537 | 13 | 263 | 1.6 | 6.4 | 0.00 | 3.23 | 1.09 | 59 | 1014.2 |
| 20260506195037 | 13 | 251 | 0.0 | 6.4 | 0.00 | 3.23 | 1.09 | 60 | 1013.9 |
| 20260506194552 | 13 | 0 | 0.0 | 4.8 | 0.00 | 3.23 | 1.09 | 58 | 1014.1 |
| 20260506194036 | 13 | 263 | 1.6 | 8.0 | 0.00 | 3.23 | 1.09 | 58 | 1014.1 |
| 20260506193537 | 13 | 276 | 1.6 | 8.0 | 0.00 | 3.23 | 1.09 | 58 | 1014.0 |
| 20260506193050 | 13 | 278 | 1.6 | 11.3 | 0.00 | 3.23 | 1.09 | 60 | 1014.1 |
| 20260506192536 | 13 | 257 | 3.2 | 11.3 | 0.00 | 3.23 | 1.09 | 59 | 1014.0 |
| 20260506192036 | 13 | 242 | 1.6 | 4.8 | 0.00 | 3.23 | 1.09 | 58 | 1014.1 |
| 20260506191553 | 13 | 253 | 3.2 | 4.8 | 0.00 | 3.23 | 1.09 | 57 | 1014.1 |
| 20260506191037 | 13 | 0 | 1.6 | 9.7 | 0.00 | 3.23 | 1.09 | 58 | 1014.1 |
| 20260506190540 | 13 | 274 | 1.6 | 9.7 | 0.00 | 3.23 | 1.09 | 59 | 1014.0 |
| 20260506190057 | 14 | 165 | 1.6 | 9.7 | 0.00 | 3.23 | 1.09 | 61 | 1014.0 |
| 20260506185536 | 14 | 275 | 3.2 | 11.3 | 0.00 | 3.23 | 1.09 | 59 | 1013.9 |
| 20260506185037 | 14 | 267 | 3.2 | 14.5 | 0.00 | 3.23 | 1.09 | 56 | 1013.9 |
| 20260506184557 | 15 | 263 | 3.2 | 14.5 | 0.00 | 3.23 | 1.09 | 56 | 1014.0 |
| 20260506184033 | 15 | 58 | 3.2 | 14.5 | 0.00 | 3.23 | 1.09 | 60 | 1013.9 |
| 20260506183536 | 15 | 272 | 3.2 | 9.7 | 0.00 | 3.23 | 1.09 | 56 | 1013.7 |
| 20260506183048 | 15 | 266 | 0.0 | 12.9 | 0.00 | 3.23 | 1.09 | 57 | 1013.8 |
| 20260506182534 | 14 | 265 | 3.2 | 12.9 | 0.00 | 3.23 | 1.09 | 58 | 1013.8 |
| 20260506182037 | 15 | 265 | 3.2 | 12.9 | 0.00 | 3.23 | 1.09 | 55 | 1013.9 |
| 20260506181552 | 15 | 78 | 1.6 | 8.0 | 0.00 | 3.23 | 1.09 | 59 | 1013.9 |
| 20260506181037 | 14 | 263 | 1.6 | 14.5 | 0.00 | 3.23 | 1.09 | 60 | 1014.1 |
| 20260506180534 | 14 | 232 | 1.6 | 14.5 | 0.00 | 3.23 | 1.09 | 58 | 1014.0 |
| 20260506180057 | 14 | 118 | 3.2 | 12.9 | 0.00 | 3.23 | 1.09 | 60 | 1014.0 |
| 20260506175534 | 13 | 274 | 1.6 | 9.7 | 0.00 | 3.23 | 1.09 | 61 | 1014.3 |
| 20260506175040 | 13 | 241 | 1.6 | 9.7 | 0.00 | 3.23 | 1.09 | 63 | 1014.1 |
| 20260506174551 | 13 | 278 | 1.6 | 11.3 | 0.00 | 3.23 | 1.09 | 62 | 1014.2 |
| 20260506174037 | 13 | 225 | 1.6 | 11.3 | 0.00 | 3.23 | 1.09 | 60 | 1014.1 |
| 20260506173537 | 13 | 265 | 3.2 | 11.3 | 0.00 | 3.23 | 1.09 | 61 | 1014.2 |
| 20260506173049 | 13 | 263 | 3.2 | 14.5 | 0.00 | 3.23 | 1.09 | 62 | 1014.2 |
| 20260506172537 | 13 | 267 | 3.2 | 14.5 | 0.00 | 3.23 | 1.09 | 62 | 1014.3 |
| 20260506172040 | 14 | 40 | 3.2 | 12.9 | 0.00 | 3.23 | 1.09 | 63 | 1014.1 |
| 20260506171558 | 14 | 267 | 1.6 | 6.4 | 0.00 | 3.23 | 1.09 | 62 | 1014.3 |
| 20260506171036 | 14 | 10 | 0.0 | 6.4 | 0.00 | 3.23 | 1.09 | 64 | 1014.4 |
| 20260506170536 | 14 | 143 | 1.6 | 6.4 | 0.00 | 3.23 | 1.09 | 62 | 1014.4 |
| 20260506170057 | 14 | 165 | 0.0 | 4.8 | 0.00 | 3.23 | 1.09 | 63 | 1014.3 |
| 20260506165535 | 13 | 29 | 1.6 | 8.0 | 0.00 | 3.23 | 1.09 | 61 | 1014.2 |
| 20260506165037 | 13 | 279 | 1.6 | 9.7 | 0.00 | 3.23 | 1.09 | 66 | 1014.2 |
| 20260506164559 | 13 | 229 | 1.6 | 9.7 | 0.00 | 3.23 | 1.09 | 66 | 1014.0 |
| 20260506164036 | 13 | 77 | 1.6 | 11.3 | 0.00 | 3.23 | 1.09 | 66 | 1014.0 |
| 20260506163533 | 13 | 188 | 4.8 | 11.3 | 0.00 | 3.23 | 1.09 | 65 | 1014.0 |
| 20260506163051 | 13 | 288 | 1.6 | 8.0 | 0.00 | 3.23 | 1.09 | 69 | 1014.2 |
| 20260506162536 | 13 | 100 | 1.6 | 6.4 | 0.00 | 3.23 | 1.09 | 72 | 1014.3 |
| 20260506162036 | 13 | 253 | 1.6 | 6.4 | 0.00 | 3.23 | 1.09 | 73 | 1014.1 |
| 20260506161547 | 12 | 87 | 1.6 | 6.4 | 0.00 | 3.23 | 1.09 | 73 | 1014.2 |
| 20260506161036 | 11 | 125 | 1.6 | 9.7 | 0.00 | 3.23 | 1.09 | 77 | 1014.1 |
| 20260506160536 | 11 | 289 | 1.6 | 9.7 | 0.00 | 3.23 | 1.09 | 75 | 1014.0 |
| 20260506160059 | 11 | 178 | 1.6 | 8.0 | 0.00 | 3.23 | 1.09 | 76 | 1014.3 |
| 20260506155534 | 11 | 257 | 1.6 | 12.9 | 0.00 | 3.23 | 1.09 | 77 | 1014.3 |
| 20260506155037 | 11 | 51 | 1.6 | 14.5 | 0.00 | 3.23 | 1.09 | 80 | 1014.4 |
| 20260506154550 | 11 | 52 | 4.8 | 14.5 | 0.00 | 3.23 | 1.09 | 83 | 1014.3 |
| 20260506154036 | 11 | 271 | 1.6 | 9.7 | 0.00 | 3.23 | 1.09 | 81 | 1014.2 |
| 20260506153537 | 10 | 0 | 1.6 | 11.3 | 0.00 | 3.23 | 1.09 | 84 | 1014.2 |
| 20260506153046 | 10 | 0 | 1.6 | 11.3 | 0.00 | 3.23 | 1.09 | 82 | 1014.0 |
| 20260506152536 | 10 | 261 | 0.0 | 6.4 | 0.00 | 3.23 | 1.09 | 83 | 1013.8 |
| 20260506152033 | 9 | 269 | 3.2 | 6.4 | 0.00 | 3.23 | 1.09 | 80 | 1013.5 |
| 20260506151545 | 9 | 250 | 0.0 | 11.3 | 0.00 | 3.23 | 1.09 | 84 | 1013.5 |
| 20260506151034 | 9 | 273 | 3.2 | 11.3 | 0.00 | 3.23 | 1.09 | 83 | 1013.4 |
| 20260506150537 | 9 | 254 | 1.6 | 9.7 | 0.00 | 3.23 | 1.09 | 85 | 1013.5 |
| 20260506150053 | 9 | 272 | 1.6 | 9.7 | 0.00 | 3.23 | 1.09 | 85 | 1013.3 |
| 20260506145537 | 8 | 266 | 1.6 | 9.7 | 0.00 | 3.23 | 1.09 | 85 | 1013.4 |
| 20260506145036 | 8 | 142 | 1.6 | 9.7 | 0.00 | 3.23 | 1.09 | 86 | 1013.4 |
| 20260506144559 | 8 | 88 | 1.6 | 11.3 | 0.00 | 3.23 | 1.09 | 87 | 1013.6 |
| 20260506144036 | 8 | 270 | 1.6 | 11.3 | 0.00 | 3.23 | 1.09 | 87 | 1013.3 |
| 20260506143537 | 8 | 233 | 0.0 | 11.3 | 0.00 | 3.23 | 1.09 | 90 | 1013.2 |
| 20260506143043 | 8 | 248 | 3.2 | 11.3 | 0.00 | 3.23 | 1.09 | 89 | 1013.0 |
| 20260506142536 | 8 | 260 | 0.0 | 6.4 | 0.00 | 3.23 | 1.09 | 93 | 1013.0 |
| 20260506142036 | 8 | 273 | 1.6 | 6.4 | 0.00 | 3.23 | 1.09 | 93 | 1013.2 |
| 20260506141543 | 8 | 157 | 0.0 | 4.8 | 0.00 | 3.23 | 1.09 | 94 | 1013.2 |
| 20260506141034 | 8 | 254 | 0.0 | 6.4 | 0.00 | 3.23 | 1.09 | 95 | 1013.4 |
| 20260506140534 | 7 | 155 | 0.0 | 6.4 | 0.00 | 3.23 | 1.09 | 95 | 1013.4 |
| 20260506140048 | 7 | 285 | 0.0 | 4.8 | 0.00 | 3.23 | 1.09 | 96 | 1013.2 |
| 20260506135535 | 7 | 261 | 1.6 | 4.8 | 0.00 | 3.23 | 1.09 | 96 | 1013.2 |
| 20260506135043 | 7 | 281 | 1.6 | 4.8 | 0.00 | 3.23 | 1.09 | 96 | 1013.0 |
| 20260506134547 | 7 | 262 | 1.6 | 4.8 | 0.00 | 3.23 | 1.09 | 96 | 1012.9 |
| 20260506134033 | 7 | 0 | 1.6 | 4.8 | 0.00 | 3.23 | 1.09 | 96 | 1013.0 |
| 20260506133537 | 7 | 234 | 0.0 | 4.8 | 0.00 | 3.23 | 1.09 | 97 | 1012.6 |
| 20260506133044 | 7 | 264 | 0.0 | 4.8 | 0.00 | 3.23 | 1.09 | 97 | 1012.6 |
| 20260506132539 | 7 | 262 | 0.0 | 4.8 | 0.00 | 3.23 | 1.09 | 97 | 1012.5 |
| 20260506132032 | 6 | 0 | 0.0 | 4.8 | 0.00 | 3.23 | 1.09 | 97 | 1012.8 |
| 20260506131557 | 6 | 0 | 0.0 | 3.2 | 0.00 | 3.23 | 1.09 | 97 | 1012.5 |
| 20260506131036 | 6 | 0 | 0.0 | 3.2 | 0.00 | 3.23 | 1.09 | 97 | 1012.5 |
| 20260506130537 | 6 | 275 | 0.0 | 3.2 | 0.00 | 3.23 | 1.09 | 97 | 1012.5 |
| 20260506130049 | 6 | 0 | 0.0 | 3.2 | 0.00 | 3.23 | 1.09 | 97 | 1012.5 |
| 20260506125533 | 6 | 268 | 0.0 | 3.2 | 0.00 | 3.23 | 1.09 | 97 | 1012.4 |
| 20260506125036 | 6 | 268 | 0.0 | 3.2 | 0.00 | 3.23 | 1.09 | 97 | 1012.2 |
| 20260506124545 | 6 | 269 | 0.0 | 1.6 | 0.00 | 3.23 | 1.09 | 97 | 1012.2 |
| 20260506124036 | 6 | 173 | 0.0 | 3.2 | 0.00 | 3.23 | 1.09 | 97 | 1012.1 |
| 20260506123536 | 6 | 0 | 0.0 | 6.4 | 0.00 | 3.23 | 1.09 | 97 | 1012.3 |
| 20260506123051 | 6 | 264 | 1.6 | 6.4 | 0.00 | 3.23 | 1.09 | 97 | 1012.3 |
| 20260506122533 | 6 | 248 | 0.0 | 3.2 | 0.00 | 3.23 | 1.09 | 97 | 1012.2 |
| 20260506122033 | 6 | 274 | 0.0 | 3.2 | 0.00 | 3.23 | 1.09 | 97 | 1012.2 |
| 20260506121553 | 6 | 0 | 0.0 | 3.2 | 0.00 | 3.23 | 1.09 | 97 | 1012.1 |
| 20260506121033 | 6 | 188 | 0.0 | 4.8 | 0.00 | 3.23 | 1.09 | 97 | 1011.9 |
| 20260506120535 | 6 | 0 | 0.0 | 4.8 | 0.00 | 3.23 | 1.09 | 97 | 1011.9 |
| 20260506120052 | 6 | 271 | 0.0 | 3.2 | 0.00 | 3.23 | 1.09 | 97 | 1011.4 |
| 20260506115535 | 6 | 0 | 0.0 | 4.8 | 0.00 | 3.23 | 1.09 | 97 | 1011.4 |
| 20260506115036 | 6 | 265 | 0.0 | 4.8 | 0.00 | 3.23 | 1.09 | 98 | 1011.1 |
| 20260506114553 | 6 | 0 | 0.0 | 3.2 | 0.00 | 3.23 | 1.09 | 98 | 1010.9 |
| 20260506114036 | 6 | 265 | 0.0 | 3.2 | 0.00 | 3.23 | 1.09 | 97 | 1010.9 |
| 20260506113536 | 6 | 248 | 0.0 | 1.6 | 0.00 | 3.23 | 1.09 | 97 | 1010.7 |
| 20260506113043 | 6 | 0 | 0.0 | 3.2 | 0.00 | 3.23 | 1.09 | 97 | 1011.0 |
| 20260506112537 | 5 | 0 | 0.0 | 3.2 | 0.00 | 3.23 | 1.09 | 97 | 1011.1 |
| 20260506112036 | 5 | 250 | 0.0 | 3.2 | 0.00 | 3.23 | 1.09 | 97 | 1011.1 |
| 20260506111550 | 6 | 0 | 0.0 | 1.6 | 0.00 | 3.23 | 1.09 | 97 | 1011.2 |
| 20260506111036 | 6 | 0 | 0.0 | 4.8 | 0.00 | 3.23 | 1.09 | 97 | 1010.9 |
| 20260506110536 | 6 | 0 | 0.0 | 9.7 | 0.00 | 3.23 | 1.09 | 97 | 1011.0 |
| 20260506110047 | 5 | 257 | 1.6 | 9.7 | 0.00 | 3.23 | 1.09 | 97 | 1010.8 |
| 20260506105534 | 6 | 266 | 1.6 | 4.8 | 0.00 | 3.30 | 1.09 | 97 | 1010.8 |
| 20260506105037 | 6 | 270 | 1.6 | 4.8 | 0.00 | 3.30 | 1.09 | 97 | 1010.6 |
| 20260506104553 | 6 | 249 | 0.0 | 9.7 | 0.00 | 3.30 | 1.09 | 97 | 1010.2 |
| 20260506104033 | 6 | 258 | 1.6 | 9.7 | 0.00 | 3.30 | 1.09 | 97 | 1009.7 |
| 20260506103537 | 6 | 242 | 0.0 | 9.7 | 0.00 | 3.30 | 1.09 | 97 | 1009.9 |
| 20260506103054 | 6 | 244 | 0.0 | 6.4 | 0.00 | 3.30 | 1.09 | 98 | 1009.9 |
| 20260506102536 | 6 | 275 | 0.0 | 3.2 | 0.00 | 3.30 | 1.09 | 98 | 1010.0 |
| 20260506102034 | 6 | 248 | 0.0 | 1.6 | 0.00 | 3.30 | 1.09 | 98 | 1010.2 |
| 20260506101547 | 6 | 0 | 0.0 | 3.2 | 0.00 | 3.30 | 1.09 | 97 | 1010.1 |
| 20260506101037 | 6 | 0 | 0.0 | 3.2 | 0.00 | 3.30 | 1.09 | 97 | 1010.4 |
| 20260506100532 | 6 | 117 | 0.0 | 1.6 | 0.03 | 3.30 | 1.09 | 97 | 1010.2 |
| 20260506100055 | 6 | 0 | 0.0 | 1.6 | 0.03 | 3.30 | 1.09 | 97 | 1009.9 |
| 20260506095536 | 6 | 230 | 0.0 | 3.2 | 0.03 | 3.48 | 1.09 | 97 | 1009.8 |
| 20260506095036 | 6 | 0 | 0.0 | 3.2 | 0.03 | 3.48 | 1.09 | 97 | 1009.6 |
| 20260506094546 | 6 | 0 | 0.0 | 1.6 | 0.03 | 3.48 | 1.09 | 97 | 1009.5 |
| 20260506094035 | 6 | 0 | 0.0 | 1.6 | 0.03 | 3.48 | 1.09 | 97 | 1009.4 |
| 20260506093536 | 6 | 0 | 0.0 | 3.2 | 0.03 | 3.48 | 1.09 | 97 | 1008.9 |
| 20260506093045 | 6 | 0 | 0.0 | 3.2 | 0.03 | 3.48 | 1.09 | 97 | 1008.9 |
| 20260506092533 | 6 | 251 | 1.6 | 3.2 | 0.03 | 3.48 | 1.09 | 97 | 1008.8 |
| 20260506092035 | 6 | 0 | 0.0 | 1.6 | 0.03 | 3.48 | 1.09 | 97 | 1009.2 |
| 20260506091547 | 6 | 259 | 0.0 | 4.8 | 0.03 | 3.48 | 1.09 | 97 | 1009.5 |
| 20260506091033 | 6 | 0 | 0.0 | 4.8 | 0.05 | 3.48 | 1.09 | 97 | 1009.6 |
| 20260506090536 | 6 | 190 | 0.0 | 4.8 | 0.05 | 3.45 | 1.07 | 97 | 1009.2 |
| 20260506090046 | 6 | 262 | 0.0 | 8.0 | 0.05 | 3.45 | 1.07 | 97 | 1009.1 |
| 20260506085532 | 6 | 256 | 0.0 | 8.0 | 0.08 | 3.45 | 1.07 | 97 | 1009.2 |
| 20260506085033 | 6 | 258 | 0.0 | 4.8 | 0.10 | 3.45 | 1.07 | 97 | 1009.2 |
| 20260506084547 | 6 | 244 | 1.6 | 4.8 | 0.13 | 3.45 | 1.07 | 97 | 1009.4 |
| 20260506084033 | 6 | 257 | 0.0 | 4.8 | 0.15 | 3.45 | 1.07 | 97 | 1009.3 |
| 20260506083533 | 6 | 192 | 1.6 | 4.8 | 0.18 | 3.45 | 1.07 | 97 | 1009.2 |
| 20260506083044 | 6 | 260 | 1.6 | 6.4 | 0.18 | 3.45 | 1.07 | 97 | 1009.2 |
| 20260506082537 | 6 | 256 | 1.6 | 6.4 | 0.20 | 3.45 | 1.07 | 97 | 1009.1 |
| 20260506082036 | 6 | 267 | 1.6 | 14.5 | 0.20 | 3.45 | 1.07 | 97 | 1009.1 |
| 20260506081544 | 6 | 256 | 1.6 | 14.5 | 0.20 | 3.45 | 1.07 | 97 | 1009.1 |
| 20260506081036 | 6 | 255 | 1.6 | 6.4 | 0.20 | 3.43 | 1.04 | 97 | 1009.0 |
| 20260506080536 | 6 | 257 | 0.0 | 6.4 | 0.18 | 3.40 | 1.02 | 97 | 1009.3 |
| 20260506073048 | 6 | 245 | 3.2 | 6.4 | 0.08 | 3.30 | 0.89 | 97 | 1009.1 |
| 20260506072533 | 6 | 269 | 3.2 | 6.4 | 0.08 | 3.28 | 0.86 | 97 | 1009.0 |
| 20260506072033 | 6 | 258 | 0.0 | 6.4 | 0.10 | 3.28 | 0.86 | 97 | 1008.9 |
| 20260506071555 | 6 | 259 | 1.6 | 8.0 | 0.13 | 3.28 | 0.86 | 97 | 1008.8 |
| 20260506071032 | 6 | 270 | 0.0 | 8.0 | 0.13 | 3.25 | 0.84 | 97 | 1008.7 |
| 20260506070534 | 6 | 209 | 1.6 | 6.4 | 0.15 | 3.25 | 0.84 | 97 | 1008.6 |
| 20260506062035 | 7 | 248 | 1.6 | 19.3 | 0.28 | 3.17 | 0.76 | 97 | 1008.3 |
| 20260506061548 | 7 | 264 | 3.2 | 19.3 | 0.28 | 3.15 | 0.74 | 97 | 1008.8 |
| 20260506061034 | 7 | 276 | 3.2 | 6.4 | 0.28 | 3.12 | 0.71 | 97 | 1008.9 |
| 20260506060539 | 7 | 260 | 1.6 | 4.8 | 0.28 | 3.10 | 0.69 | 97 | 1009.0 |
| 20260506051036 | 8 | 261 | 1.6 | 6.4 | 0.41 | 2.84 | 0.43 | 97 | 1009.0 |
| 20260506050538 | 8 | 256 | 4.8 | 6.4 | 0.41 | 2.82 | 0.41 | 97 | 1008.5 |
| 20260506045036 | 8 | 264 | 3.2 | 8.0 | 0.36 | 2.77 | 0.36 | 97 | 1008.7 |